SL-3 DEB

Satellite information

Favourite Embed

Satellite Type and Status

DEBRISIN ORBIT

Key statistics

Satellite SL-3 DEB at a glance.

Uptime

15168

Days in orbit

Revolutions

≈ 14.3

Per day

Orbit

LEO

Low Earth Orbit

Inclination

81.2

Latest

Satellite identification and parameters

Extended collection of information and parameters for SL-3 DEB.

Object identification

Identified? True

Debris? True

Object name: SL-3 DEB

International designator: 1983-109C

Object number (NORAD): 14454

Object ID (CCSDS): 14454

Country: COMMONWEALTH OF INDEPENDENT STATES (CIS)

Current information (Y/N): Y

RCS size: SMALL

Orbital parameters

Period: 100.961 minutes

Inclination: 81.1639 deg

SMA: 7182.298 km

Apoapsis: 871.597 km

Periapsis: 736.729 km

RAAN: 55.3025 deg

Eccentricy: 0.0093889

Argument of periapsis: 320.4438 deg

Mean anomaly: 96.5577 deg

Mean motion: 14.26289272 rev/day

Mean motion (dot): 0.00000169 rev/day2

B* drag term: 0.000062461 1/REarth

Two-line elements (TLE)

Creation date: May 8, 2025, 3:01 a.m.

Reference frame: TEME

Reference center: EARTH

Epoch: May 7, 2025, 7:53 p.m. UTC

TLE line 0: 0 SL-3 DEB

TLE line 1: 1 14454U 83109C 25127.82892899 .00000169 00000-0 62461-4 0 9990

TLE line 2: 2 14454 81.1639 55.3025 0093889 320.4438 96.5577 14.26289272159185

Live tracking on map

Real-time ground track for satellite SL-3 DEB.

In-orbit conjunctions

A list of the most updated potential collisions computed for object SL-3 DEB.

Target Orbit TCA Probability of collision Miss distance Type
FENGYUN 1C DEB SSO 2024-12-12 19:27:11 0.0001817383 158.0 (m) DEBRIS
NOAA 17 DEB SSO 2024-07-25 12:20:31 0.0001270456 60.0 (m) DEBRIS

Associated space launch

Second generation soviet meteorological satellite

SL-3 DEB was lifted into orbit during the mission ‘Vostok 8A92M | Meteor-2 10’, on board a Vostok 8A92M space rocket.

The launch took place on Oct. 28, 1983, 9 a.m. from 16/2.

For more information about the launch, click the button.

Launch to space Vostok 8A92M | Meteor-2 10
Vostok 8A92M | Meteor-2 10

Agency: N/A

Status: Launch Successful

Launch date: Oct. 28, 1983, 9 a.m. UTC

Rocket: Vostok 8A92M

Launch pad: 16/2

Location: Plesetsk Cosmodrome, Russian Federation

...

Latest news about this satellite

There are no fresh news available about this satellite. Check back as we update our databases every day.


Newsletter sign-up

Weekly statistics, charts and insights to help you stay on top of the space industry.